Hourly Data Report for September 24, 2017

All times are specified in Local Standard Time (LST). Add 1 hour to adjust for Daylight Saving Time where and when it is observed.

FISHER BRANCH (AUT)
MANITOBA

51°05'00.100" N
97°33'16.200" W
253.00 m
50309J6
71442
WSZ

Download Data

Hourly Data (September 2017)
Hourly Data Report for September 24, 2017
Temp Definition
°C
Dew Point Temp Definition
°C
Rel Hum Definition
%
Wind Dir Definition
10's deg

Wind Spd Definition
km/h
Visibility Definition
km
Stn Press Definition
kPa
Hmdx Definition


Wind Chill Definition


Weather Definition


TIME
00:00 8.8 7.4 91 34 11   98.92     LegendNANA
01:00 8.8 7.6 92 4 5   98.93     LegendNANA
02:00 8.5 7.6 94 33 7   98.90     LegendNANA
03:00 8.4 7.7 95 33 8   98.86     LegendNANA
04:00 8.4 7.7 95 34 6   98.87     LegendNANA
05:00 8.4 7.7 96 33 10   98.79     LegendNANA
06:00 8.5 7.8 96 34 11   98.75     LegendNANA
07:00 8.4 7.9 96 35 10   98.70     LegendNANA
08:00 8.8 8.2 96 35 12   98.65     LegendNANA
09:00 9.0 8.3 95 35 13   98.60     LegendNANA
10:00 9.3 8.4 95 35 16   98.56     LegendNANA
11:00 9.4 8.4 94 34 18   98.56     LegendNANA
12:00 9.5 8.6 94 34 20   98.54     LegendNANA
13:00 9.8 8.8 93 35 17   98.47     LegendNANA
14:00 9.3 8.3 93 35 20   98.40     LegendNANA
15:00 9.4 8.2 92 35 19   98.41     LegendNANA
16:00 9.2 8.1 93 34 20   98.47     LegendNANA
17:00 9.0 8.0 94 34 16   98.52     LegendNANA
18:00 8.7 7.7 93 34 19   98.54     LegendNANA
19:00 8.6 7.7 94 34 17   98.55     LegendNANA
20:00 8.6 7.5 93 34 16   98.59     LegendNANA
21:00 8.4 7.3 93 33 15   98.63     LegendNANA
22:00 8.3 7.1 93 33 15   98.67     LegendNANA
23:00 8.1 7.0 93 33 13   98.69     LegendNANA

Notes on Data Quality.

Legend

  • E = Estimated
  • M = Missing
  • NA = Not Available
  • ‡ = Partner data that is not subject to review by the National Climate Archives
Date modified: